Weather History for KAIK - February, 2013

Change the Weather History Date:

Wednesday, February 27, 2013

  Actual Average Record
Temperature  
Mean Temperature 50 °F -  
Max Temperature 60 °F 64 °F 78 °F (2011)
Min Temperature 39 °F 35 °F 28 °F (2014)
Degree Days  
Heating Degree Days 16    
Moisture  
Dew Point 40 °F    
Average Humidity 74    
Maximum Humidity 100    
Minimum Humidity 45    
Precipitation  
Precipitation 0.00 in - - ()
Sea Level Pressure  
Sea Level Pressure 29.85 in    
Wind  
Wind Speed 10 mph (WSW)    
Max Wind Speed 17 mph    
Max Gust Speed 23 mph    
Visibility 10 miles    
Events      
Averages and records for this station are not official NWS values.
T = Trace of Precipitation, MM = Missing Value Source: NWS Daily Summary

Daily Weather History Graph

Daily Weather History Graph

Search for Another Location

Airport or City:

Trip Planner

Search our weather history database for the weather conditions in past years. The results will help you decide how hot, cold, wet, or windy it might be!

Date:

Astronomy

Feb. 27, 2013 Rise Set
Actual Time 6:57 AM EST 6:21 PM EST
Civil Twilight 6:32 AM EST 6:46 PM EST
Nautical Twilight 6:03 AM EST 7:15 PM EST
Astronomical Twilight 5:34 AM EST 7:44 PM EST
Moon 8:32 PM EST (2/27) 7:39 AM EST (2/27)
Length of Visible Light 12h 14m
Length of Day
11h 24m
Waning Gibbous, 96% of the Moon is Illuminated
Feb 27
Waning Gibbous
Mar 4
Last Quarter
Mar 11
New
Mar 19
First Quarter
Mar 27
Full

Hourly Weather History & Observations

Time (EST) Temp. Windchill Dew Point Humidity Pressure Visibility Wind Dir Wind Speed Gust Speed Precip Events Conditions
12:15 AM 44.6 °F 39.7 °F - N/A% 29.78 in 10.0 mi WSW 9.2 mph - N/A   Mostly Cloudy
12:35 AM 44.6 °F 39.2 °F - N/A% 29.78 in 10.0 mi West 10.4 mph - N/A   Clear
12:55 AM 44.6 °F 39.2 °F - N/A% 29.79 in 10.0 mi WSW 10.4 mph - N/A   Clear
1:15 AM 44.6 °F 38.8 °F 44.6 °F 100% 29.79 in 10.0 mi West 11.5 mph 18.4 mph N/A   Clear
1:35 AM 44.6 °F 39.7 °F 44.6 °F 100% 29.80 in 10.0 mi WSW 9.2 mph 16.1 mph N/A   Clear
1:55 AM 42.8 °F 37.0 °F 42.8 °F 100% 29.80 in 10.0 mi WSW 10.4 mph - N/A   Clear
2:35 AM 42.8 °F 36.6 °F 42.8 °F 100% 29.80 in 10.0 mi WSW 11.5 mph - N/A   Clear
2:55 AM 42.8 °F 37.0 °F 42.8 °F 100% 29.80 in 10.0 mi WSW 10.4 mph - N/A   Clear
3:15 AM 41.0 °F 35.2 °F 41.0 °F 100% 29.79 in 10.0 mi WSW 9.2 mph - N/A   Clear
3:35 AM 41.0 °F 35.8 °F 41.0 °F 100% 29.80 in 10.0 mi WSW 8.1 mph - N/A   Clear
3:55 AM 41.0 °F 34.7 °F 41.0 °F 100% 29.80 in 10.0 mi WSW 10.4 mph - N/A   Clear
4:15 AM 41.0 °F 35.2 °F 41.0 °F 100% 29.80 in 10.0 mi WSW 9.2 mph - N/A   Clear
4:35 AM 41.0 °F 35.2 °F 41.0 °F 100% 29.81 in 10.0 mi WSW 9.2 mph - N/A   Clear
4:55 AM 39.2 °F 33.6 °F 39.2 °F 100% 29.82 in 10.0 mi WSW 8.1 mph - N/A   Clear
5:15 AM 39.2 °F 33.6 °F 39.2 °F 100% 29.83 in 10.0 mi WSW 8.1 mph - N/A   Mostly Cloudy
5:35 AM 39.2 °F 33.6 °F 39.2 °F 100% 29.83 in 10.0 mi SW 8.1 mph - N/A   Scattered Clouds
5:55 AM 39.2 °F 33.6 °F 39.2 °F 100% 29.84 in 10.0 mi WSW 8.1 mph - N/A   Clear
6:15 AM 39.2 °F 33.6 °F 39.2 °F 100% 29.83 in 10.0 mi SW 8.1 mph - N/A   Clear
6:35 AM 39.2 °F 33.6 °F 39.2 °F 100% 29.85 in 10.0 mi SW 8.1 mph - N/A   Clear
7:15 AM 39.2 °F 33.6 °F 39.2 °F 100% 29.87 in 10.0 mi SW 8.1 mph - N/A   Scattered Clouds
7:35 AM 41.0 °F 35.8 °F 41.0 °F 100% 29.88 in 10.0 mi SW 8.1 mph - N/A   Mostly Cloudy
7:55 AM 41.0 °F 35.8 °F 39.2 °F 93% 29.88 in 10.0 mi SW 8.1 mph - N/A   Overcast
8:15 AM 41.0 °F 36.4 °F 41.0 °F 100% 29.89 in 10.0 mi SW 6.9 mph - N/A   Overcast
8:35 AM 41.0 °F 36.4 °F 39.2 °F 93% 29.90 in 10.0 mi WSW 6.9 mph - N/A   Scattered Clouds
9:15 AM 44.6 °F 40.2 °F 37.4 °F 76% 29.90 in 10.0 mi WSW 8.1 mph - N/A   Clear
9:35 AM 46.4 °F 41.5 °F 37.4 °F 71% 29.90 in 10.0 mi West 10.4 mph - N/A   Clear
9:55 AM 46.4 °F 40.4 °F 37.4 °F 71% 29.91 in 10.0 mi WSW 13.8 mph 19.6 mph N/A   Clear
10:15 AM 48.2 °F - 37.4 °F 66% 29.91 in 10.0 mi WSW 17.3 mph 21.9 mph N/A   Clear
10:35 AM 50.0 °F - 37.4 °F 62% 29.91 in 10.0 mi WSW 16.1 mph 19.6 mph N/A   Clear
10:55 AM 50.0 °F - 37.4 °F 62% 29.91 in 10.0 mi West 12.7 mph 17.3 mph N/A   Clear
11:15 AM 50.0 °F - 37.4 °F 62% 29.91 in 10.0 mi West 11.5 mph 23.0 mph N/A   Clear
11:35 AM 51.8 °F - 39.2 °F 62% 29.91 in 10.0 mi WSW 11.5 mph 18.4 mph N/A   Clear
11:55 AM 53.6 °F - 39.2 °F 58% 29.91 in 10.0 mi West 11.5 mph 17.3 mph N/A   Clear
12:15 PM 53.6 °F - 39.2 °F 58% 29.90 in 10.0 mi West 11.5 mph 17.3 mph N/A   Clear
12:35 PM 55.4 °F - 41.0 °F 58% 29.89 in 10.0 mi West 15.0 mph 19.6 mph N/A   Clear
12:55 PM 55.4 °F - 41.0 °F 58% 29.88 in 10.0 mi West 10.4 mph 20.7 mph N/A   Clear
1:55 PM 59.0 °F - 41.0 °F 51% 29.86 in 10.0 mi WSW 10.4 mph 18.4 mph N/A   Clear
2:15 PM 59.0 °F - 41.0 °F 51% 29.84 in 10.0 mi West 11.5 mph - N/A   Clear
2:35 PM 60.8 °F - 39.2 °F 45% 29.84 in 10.0 mi West 12.7 mph 20.7 mph N/A   Clear
2:55 PM 59.0 °F - 41.0 °F 51% 29.84 in 10.0 mi WSW 9.2 mph 17.3 mph N/A   Clear
3:15 PM 60.8 °F - 39.2 °F 45% 29.84 in 10.0 mi WSW 9.2 mph 20.7 mph N/A   Clear
3:35 PM 60.8 °F - 39.2 °F 45% 29.83 in 10.0 mi SW 11.5 mph - N/A   Clear
3:55 PM 60.8 °F - 39.2 °F 45% 29.83 in 10.0 mi SW 13.8 mph 19.6 mph N/A   Clear
4:15 PM 60.8 °F - 41.0 °F 48% 29.82 in 10.0 mi WSW 11.5 mph 16.1 mph N/A   Clear
4:35 PM 60.8 °F - 39.2 °F 45% 29.83 in 10.0 mi WSW 11.5 mph 19.6 mph N/A   Clear
4:55 PM 60.8 °F - 39.2 °F 45% 29.83 in 10.0 mi WSW 12.7 mph 17.3 mph N/A   Clear
5:15 PM 60.8 °F - 39.2 °F 45% 29.83 in 10.0 mi WSW 11.5 mph 17.3 mph N/A   Clear
5:35 PM 60.8 °F - 39.2 °F 45% 29.83 in 10.0 mi SW 12.7 mph 19.6 mph N/A   Clear
6:15 PM 57.2 °F - 41.0 °F 55% 29.83 in 10.0 mi WSW 6.9 mph - N/A   Clear
6:35 PM 53.6 °F - 41.0 °F 62% 29.84 in 10.0 mi WSW 4.6 mph - N/A   Clear
6:55 PM 53.6 °F - 41.0 °F 62% 29.84 in 10.0 mi SW 3.5 mph - N/A   Clear
7:15 PM 51.8 °F - 41.0 °F 67% 29.84 in 10.0 mi SSW 6.9 mph - N/A   Clear
7:35 PM 51.8 °F - 41.0 °F 67% 29.84 in 10.0 mi SSW 6.9 mph - N/A   Clear
7:55 PM 51.8 °F - 41.0 °F 67% 29.84 in 10.0 mi SSW 5.8 mph - N/A   Clear
8:15 PM 50.0 °F - 41.0 °F 71% 29.84 in 10.0 mi SSW 4.6 mph - N/A   Clear
8:35 PM 50.0 °F - 41.0 °F 71% 29.84 in 10.0 mi SW 5.8 mph - N/A   Clear
9:15 PM 48.2 °F - 41.0 °F 76% 29.84 in 10.0 mi SSW 8.1 mph - N/A   Clear
9:35 PM 50.0 °F - 41.0 °F 71% 29.85 in 10.0 mi SSW 10.4 mph - N/A   Clear
9:55 PM 50.0 °F - 41.0 °F 71% 29.85 in 10.0 mi SW 10.4 mph 16.1 mph N/A   Clear
10:15 PM 50.0 °F - 41.0 °F 71% 29.85 in 10.0 mi SW 8.1 mph - N/A   Clear
10:35 PM 48.2 °F - 41.0 °F 76% 29.86 in 10.0 mi SW 9.2 mph - N/A   Clear
10:55 PM 48.2 °F - 41.0 °F 76% 29.86 in 10.0 mi SW 9.2 mph - N/A   Clear
11:15 PM 48.2 °F - 42.8 °F 82% 29.85 in 10.0 mi SW 9.2 mph - N/A   Scattered Clouds
11:55 PM 46.4 °F 41.5 °F 41.0 °F 81% 29.85 in 10.0 mi SW 10.4 mph - N/A   Clear